Content
SEND FEEDBACK

Daily
Averages
Monthly
Summary
United States of America

CARY, NORTH CAROLINA


Home > North America > United States > North Carolina
Elevation: 385 feet     Latitude: 35 44N     Longitude: 078 41W

WEATHER
 
SELECT A DAY
Number of Records: 196,615;   Date Range: 1/1/95 - 11/19/14
 
SHARE

PRINT THIS DATA

[ ← Previous Day ]
WEATHER ALMANAC - MARCH 5, 2013
[ Next Day → ]
[ °C ]   °F
Weather ElementAverageHighLow
Temperature43.3 °F48.9 °F (9:51 am)36 °F (6:51 am)
Dewpoint36.2 °F43 °F (3:51 pm)21.9 °F (2:51 am)
Humidity78.6 %93 % (2:11 pm)39 % (9:51 am)
Barometer29.90 in30.08 in (4:51 am)29.57 in (11:51 pm)
Wind Speed5.7 mph17.3 mph (8:51 pm)
Wind Gust23 mph (9:51 pm)
Weather ElementAverage
Visibility4.6 mi
Wind DirectionESE (108.7 °)

Weather ElementTotal
Precipitation0.51 in
Heating Degree Days22.6 (Base 65)
Averaged from 30 records on March 5, 2013
WEATHER CONDITIONS BREAKOUT
WIND DIRECTION BREAKOUT
WEATHER BY HOUR - MARCH 5, 2013
[ °C ]   °F
Local TimeTemperatureDewpointHumidityBarometerVisibilityWind DirectionWind SpeedGust SpeedPrecipitationEventsConditions
2:51 AM37.9 °F21.9 °F53 %30.07 in10.0 miCalmMostly Cloudy
3:51 AM37.0 °F26.1 °F65 %30.07 in10.0 miCalm0.00 inMostly Cloudy
4:51 AM37.9 °F24.1 °F57 %30.08 in10.0 miCalmMostly Cloudy
5:51 AM37.0 °F24.1 °F59 %30.08 in10.0 miCalmMostly Cloudy
6:51 AM36.0 °F24.1 °F62 %30.07 in10.0 miCalmMostly Cloudy
7:51 AM39.2 °F23.0 °F52 %30.05 in10.0 miSSE (150°)4.6 mphMostly Cloudy
8:51 AM44.1 °F23.0 °F43 %30.04 in10.0 miSSE (160°)5.8 mphMostly Cloudy
9:51 AM48.9 °F25.0 °F39 %30.05 in10.0 miSW (220°)8.1 mphMostly Cloudy
10:51 AM48.9 °F26.1 °F41 %30.02 in10.0 miSouth (170°)4.6 mphOvercast
11:51 AM48.0 °F33.1 °F56 %30.01 in5.0 miSW (230°)10.4 mph0.00 inRainLight Rain
12:31 PM42.8 °F39.2 °F87 %30.00 in2.0 miSW (220°)9.2 mph0.00 inRainLight Rain
12:38 PM42.8 °F39.2 °F87 %29.99 in1.5 miSW (230°)6.9 mph0.01 inRainLight Rain
12:51 PM43.0 °F39.9 °F89 %29.99 in1.5 miSSW (210°)3.5 mph0.01 inRainLight Rain
1:51 PM45.0 °F42.1 °F90 %29.94 in1.5 miSouth (180°)6.9 mph0.06 inRainLight Rain
2:11 PM44.6 °F42.8 °F93 %29.93 in1.5 miSSW (200°)5.8 mph0.01 inLight Drizzle
2:51 PM44.1 °F42.1 °F93 %29.92 in1.5 miSouth (170°)4.6 mph0.01 inRainLight Rain
3:51 PM45.0 °F43.0 °F93 %29.90 in1.5 miSSE (150°)3.5 mph0.02 inRainLight Rain
4:37 PM44.6 °F42.8 °F93 %29.87 in1.5 miCalm0.00 inLight Drizzle
4:51 PM45.0 °F43.0 °F93 %29.88 in1.5 miCalm0.03 inLight Drizzle
5:33 PM44.6 °F42.8 °F93 %29.85 in1.2 miEast (80°)3.5 mph0.00 inLight Drizzle
5:51 PM45.0 °F43.0 °F93 %29.85 in1.2 miEast (80°)4.6 mph0.00 inLight Drizzle
6:35 PM44.6 °F42.8 °F93 %29.82 in1.2 miEast (90°)5.8 mph0.00 inLight Drizzle
6:51 PM45.0 °F43.0 °F93 %29.81 in1.2 miEast (100°)8.1 mph0.00 inLight Drizzle
7:51 PM45.0 °F42.1 °F90 %29.76 in1.2 miEast (90°)9.2 mph0.00 inOvercast
8:24 PM44.6 °F42.8 °F93 %29.71 in3.0 miESE (110°)13.8 mphOvercast
8:51 PM44.1 °F41.0 °F89 %29.68 in3.0 miEast (100°)17.3 mph0.00 inRainLight Rain
9:51 PM43.0 °F39.9 °F89 %29.65 in4.0 miESE (110°)12.7 mph23.0 mph0.03 inRainLight Rain
10:17 PM42.8 °F41.0 °F93 %29.64 in2.5 miEast (100°)8.1 mph0.08 inRainRain
10:51 PM43.0 °F41.0 °F93 %29.62 in5.0 miVariable6.9 mph0.25 inRainLight Rain
11:51 PM44.1 °F42.1 °F93 %29.57 in5.0 miESE (110°)6.9 mph0.00 inMostly Cloudy
Hourly data recorded from KRDU, located miles away from Cary, North Carolina







STORIES FROM OUR PARTNERS